Zurück zum Katalog

OPS 1570

AktivNavigationGEO
NORAD 5851·PAYLOAD·🇺🇸 United States

Gestartet Mar 1, 1972 von Cape Canaveral Space Force Station

Loading…

TLE

AktuellSource: Space-Track

Epoche: Sep 14, 2026, 13:51 UTC

1 05851U 72010A   26257.57761436 -.00000004  00000-0  00000-0 0  9995
2 05851   0.6368  92.5381 0009336 178.1676 303.6477  0.99781241 26828

Verfolge OPS 1570 in Echtzeit mit AllMySat

Download on the App Store